San Antonio, Texas, United States (78266)
Lat: 29.42N, Lon: 98.49W
Wx Zone: TXZ206
Local Info
Past Weather Observations for Today

NOTE: This archive is for the closest National Weather Service station to San Antonio. Information may differ from the station used for current weather conditions.

Click here for Long-term Archive

Time Weather Temperature Dewpoint Humidity Pressure Winds Precip Visibility
17:58
Clear
97°F / 36°C 66°F / 19°C 37% 29.86 in
(1011 mb)
SSE 9.2 mph
(SSE 15 kph)
- 10SM
16:58
Partly Cloudy
99°F / 37°C 66°F / 19°C 35% 29.89 in
(1012 mb)
SE 9.2 mph
(SE 15 kph)
- 10SM
15:58
Clear
99°F / 37°C 66°F / 19°C 35% 29.92 in
(1013 mb)
SE 10.4 mph
(SE 17 kph)
- 10SM
14:58
Clear
97°F / 36°C 66°F / 19°C 37% 29.92 in
(1013 mb)
S 8.1 mph
(S 13 kph)
- 10SM
13:58
Partly Cloudy
95°F / 35°C 68°F / 20°C 41% 29.95 in
(1014 mb)
Variable 4.6 mph
(Variable 7 kph)
- 10SM
12:58
Mostly Cloudy
93°F / 34°C 68°F / 20°C 44% 29.98 in
(1015 mb)
Variable 6.9 mph
(Variable 11 kph)
- 10SM
11:58
Partly Cloudy
91°F / 33°C 68°F / 20°C 46% 30.01 in
(1016 mb)
Variable 3.5 mph
(Variable 6 kph)
- 10SM
10:58
Partly Cloudy
90°F / 32°C 70°F / 21°C 52% 30.04 in
(1017 mb)
SW 6.9 mph
(SW 11 kph)
- 10SM
09:58
Partly Cloudy
88°F / 31°C 70°F / 21°C 55% 30.04 in
(1017 mb)
Variable 5.8 mph
(Variable 9 kph)
- 10SM
09:43
Partly Cloudy
88°F / 31°C 72°F / 22°C 59% 30.04 in
(1017 mb)
SW 8.1 mph
(SW 13 kph)
- 10SM
09:38
Mostly Cloudy
86°F / 30°C 73°F / 23°C 66% 30.04 in
(1017 mb)
SW 9.2 mph
(SW 15 kph)
- 10SM
08:58
Partly Cloudy
84°F / 29°C 72°F / 22°C 66% 30.04 in
(1017 mb)
SSE 6.9 mph
(SSE 11 kph)
- 10SM
08:08
Partly Cloudy
81°F / 27°C 75°F / 24°C 84% 30.04 in
(1017 mb)
SW 9.2 mph
(SW 15 kph)
- 10SM
07:58
Mostly Cloudy
81°F / 27°C 75°F / 24°C 84% 30.04 in
(1017 mb)
SW 8.1 mph
(SW 13 kph)
- 10SM
07:53
Mostly Cloudy
81°F / 27°C 75°F / 24°C 84% 30.04 in
(1017 mb)
SW 6.9 mph
(SW 11 kph)
- 10SM
06:58
Partly Cloudy
77°F / 25°C 77°F / 25°C 100% 30.01 in
(1016 mb)
Calm - 10SM
06:43
Partly Cloudy
77°F / 25°C 75°F / 24°C 94% 30.01 in
(1016 mb)
Calm - 10SM
06:38
Mostly Cloudy
77°F / 25°C 77°F / 25°C 100% 30.01 in
(1016 mb)
Calm - 10SM
05:58
Partly Cloudy
77°F / 25°C 75°F / 24°C 94% 30.01 in
(1016 mb)
SSE 4.6 mph
(SSE 7 kph)
- 10SM
05:48
Mostly Cloudy
77°F / 25°C 75°F / 24°C 94% 30.01 in
(1016 mb)
SSE 3.5 mph
(SSE 6 kph)
- 10SM
04:58
Overcast
75°F / 24°C 75°F / 24°C 100% 30.01 in
(1016 mb)
S 3.5 mph
(S 6 kph)
- 10SM
04:48
Mostly Cloudy
75°F / 24°C 73°F / 23°C 94% 30.01 in
(1016 mb)
SSE 2.3 mph
(SSE 4 kph)
- 10SM
04:43
Mostly Cloudy
75°F / 24°C 73°F / 23°C 94% 30.01 in
(1016 mb)
SSE 3.5 mph
(SSE 6 kph)
- 10SM
04:38
Mostly Cloudy
75°F / 24°C 73°F / 23°C 94% 30.01 in
(1016 mb)
SSE 4.6 mph
(SSE 7 kph)
- 10SM
03:58
Clear
73°F / 23°C 73°F / 23°C 100% 30.01 in
(1016 mb)
S 4.6 mph
(S 7 kph)
- 10SM
02:58
Clear
77°F / 25°C 73°F / 23°C 89% 30.01 in
(1016 mb)
SE 4.6 mph
(SE 7 kph)
- 10SM
01:58
Clear
79°F / 26°C 73°F / 23°C 84% 30.01 in
(1016 mb)
S 5.8 mph
(S 9 kph)
- 10SM
00:58
Clear
77°F / 25°C 72°F / 22°C 83% 30.04 in
(1017 mb)
SE 4.6 mph
(SE 7 kph)
- 10SM
Time Weather Temperature Dewpoint Humidity Pressure Winds Precip Visibility


Weather for websites

WeatherForYou.com, LLC is not responsible for any damages or problems caused by this service. Current weather conditions are obtained from the closest station including government and personal stations which may have varying degrees of accuracy. Weather forecasts are derived from the NOAA NDFD. Like all things, this site belongs to Jesus Christ... He just trusts us to maintain it. If you have any questions or comments email webmaster@weatherforyou.com

Copyright © 2016, WeatherForYou.com LLC. All rights reserved.